CCA3838 ZGSD-ZGZJ

Flight info

Callsign CCA3838
Flight time N/A
Altitude 21700
Route TOMUD R200 BIGRO
Aircraft A320/M-SDE3FGHIRWY/LB1D1

Departure

Time 2026-05-05 11:55
Airport Zhuhai Jinwan Airport (ZGSD)

Arrival

Time N/A
Airport Zhanjiang Wuchuan International Airport (ZGZJ)
Time Latitude Longitude Altitude Speed Heading
2026-05-05 11:42 22.00881 113.37309 30 ft 0 kts 256°
2026-05-05 11:48 22.00889 113.37334 28 ft 4 kts 244°
2026-05-05 11:48 22.00903 113.37359 28 ft 4 kts 226°
2026-05-05 11:48 22.00924 113.37376 28 ft 4 kts 198°
2026-05-05 11:49 22.00946 113.37377 28 ft 2 kts 137°
2026-05-05 11:49 22.00948 113.37375 28 ft 0 kts 134°
2026-05-05 11:50 22.00945 113.37378 28 ft 2 kts 134°
2026-05-05 11:51 22.00929 113.37396 28 ft 6 kts 134°
2026-05-05 11:51 22.00889 113.37440 28 ft 11 kts 135°
2026-05-05 11:51 22.00827 113.37507 28 ft 14 kts 135°
2026-05-05 11:51 22.00768 113.37505 28 ft 8 kts 224°
2026-05-05 11:52 22.00712 113.37453 28 ft 14 kts 221°
2026-05-05 11:52 22.00634 113.37370 27 ft 17 kts 226°
2026-05-05 11:52 22.00544 113.37269 27 ft 20 kts 225°
2026-05-05 11:52 22.00441 113.37159 27 ft 22 kts 225°
2026-05-05 11:53 22.00323 113.37039 27 ft 24 kts 222°
2026-05-05 11:53 22.00202 113.36911 27 ft 27 kts 225°
2026-05-05 11:53 22.00065 113.36762 27 ft 29 kts 226°
2026-05-05 11:53 21.99920 113.36598 27 ft 32 kts 227°
2026-05-05 11:54 21.99752 113.36434 27 ft 34 kts 224°
2026-05-05 11:54 21.99592 113.36298 27 ft 21 kts 170°
2026-05-05 11:54 21.99495 113.36389 27 ft 17 kts 112°
2026-05-05 11:54 21.99561 113.36483 27 ft 19 kts 44°
2026-05-05 11:55 21.99824 113.36762 28 ft 88 kts 44°
2026-05-05 11:55 22.00385 113.37361 27 ft 140 kts 44°
2026-05-05 11:55 22.01139 113.38170 402 ft 155 kts 43°
2026-05-05 11:55 22.01899 113.38990 1124 ft 155 kts 47°
2026-05-05 11:56 22.02662 113.39807 1824 ft 157 kts 49°
2026-05-05 11:56 22.03451 113.40654 2229 ft 177 kts 49°
2026-05-05 11:56 22.04392 113.41637 2605 ft 201 kts 41°
2026-05-05 11:56 22.05783 113.42197 2920 ft 234 kts
2026-05-05 11:57 22.07401 113.41626 3361 ft 263 kts 323°
2026-05-05 11:57 22.08482 113.39996 4027 ft 275 kts 284°
2026-05-05 11:57 22.08566 113.37966 5054 ft 271 kts 259°
2026-05-05 11:57 22.08122 113.35998 6105 ft 270 kts 251°
2026-05-05 11:58 22.07530 113.34070 7028 ft 272 kts 250°
2026-05-05 11:58 22.06973 113.32252 7873 ft 274 kts 252°
2026-05-05 11:58 22.06425 113.30274 8761 ft 277 kts 254°
2026-05-05 11:58 22.05930 113.28256 9613 ft 280 kts 256°
2026-05-05 11:59 22.05475 113.26197 10302 ft 289 kts 257°
2026-05-05 11:59 22.05015 113.23970 10540 ft 312 kts 258°
2026-05-05 11:59 22.04744 113.22616 10454 ft 332 kts 258°
2026-05-05 11:59 22.04257 113.20114 10819 ft 343 kts 258°
2026-05-05 12:00 22.03781 113.17636 11840 ft 335 kts 258°
2026-05-05 12:00 22.03308 113.15184 12647 ft 334 kts 258°
2026-05-05 12:00 22.02833 113.12724 13375 ft 336 kts 259°
2026-05-05 12:00 22.02351 113.10248 14017 ft 339 kts 259°
2026-05-05 12:01 22.01862 113.07755 14616 ft 341 kts 259°
2026-05-05 12:01 22.01370 113.05245 15212 ft 343 kts 259°
2026-05-05 12:01 22.00874 113.02720 15821 ft 345 kts 259°
2026-05-05 12:01 22.00345 113.00036 16461 ft 347 kts 259°
2026-05-05 12:02 21.99335 112.94916 17649 ft 351 kts 259°
2026-05-05 12:02 21.98313 112.89729 18704 ft 356 kts 259°
2026-05-05 12:02 21.97275 112.84474 19686 ft 362 kts 259°
2026-05-05 12:02 21.95694 112.79290 20625 ft 369 kts 248°
2026-05-05 12:03 21.93618 112.74183 21553 ft 376 kts 248°
2026-05-05 12:03 21.91530 112.69009 21680 ft 375 kts 249°
2026-05-05 12:03 21.89443 112.63847 21683 ft 379 kts 248°
2026-05-05 12:03 21.87259 112.58442 21681 ft 409 kts 248°
2026-05-05 12:04 21.84918 112.52658 21679 ft 431 kts 248°
2026-05-05 12:04 21.82548 112.46708 21678 ft 434 kts 248°
2026-05-05 12:04 21.80171 112.40680 21674 ft 444 kts 248°
2026-05-05 12:04 21.77739 112.34532 21673 ft 448 kts 248°
2026-05-05 12:05 21.75289 112.28371 21674 ft 448 kts 248°
2026-05-05 12:05 21.73662 112.24291 21671 ft 448 kts 248°
2026-05-05 12:05 21.70375 112.16063 21671 ft 449 kts 248°
2026-05-05 12:05 21.68746 112.11985 21675 ft 449 kts 248°
2026-05-05 12:06 21.66281 112.05820 21670 ft 449 kts 248°
2026-05-05 12:06 21.63813 111.99648 21671 ft 453 kts 248°
2026-05-05 12:06 21.61317 111.93405 21671 ft 456 kts 248°
2026-05-05 12:06 21.58804 111.87141 21670 ft 456 kts 248°
2026-05-05 12:07 21.56279 111.80879 21670 ft 457 kts 248°
2026-05-05 12:07 21.53654 111.74666 21667 ft 457 kts 247°
2026-05-05 12:07 21.50996 111.68465 21664 ft 457 kts 250°
2026-05-05 12:07 21.50050 111.61572 21673 ft 454 kts 270°
2026-05-05 12:08 21.50050 111.59284 21665 ft 454 kts 270°
2026-05-05 12:08 21.50036 111.55893 21558 ft 453 kts 270°
2026-05-05 12:08 21.50008 111.52577 21336 ft 434 kts 270°
2026-05-05 12:08 21.49971 111.49426 21198 ft 407 kts 270°
2026-05-05 12:09 21.49932 111.46491 20795 ft 382 kts 270°
2026-05-05 12:09 21.49897 111.43685 20050 ft 371 kts 270°
2026-05-05 12:09 21.49866 111.40940 19202 ft 364 kts 270°
2026-05-05 12:09 21.49838 111.38276 18345 ft 359 kts 269°
2026-05-05 12:10 21.49744 111.35619 17407 ft 353 kts 262°
2026-05-05 12:10 21.49162 111.33078 16939 ft 350 kts 252°
2026-05-05 12:10 21.47086 111.26495 15841 ft 335 kts 252°
2026-05-05 12:10 21.44167 111.17256 14334 ft 321 kts 252°
2026-05-05 12:11 21.41319 111.08266 12783 ft 315 kts 252°
2026-05-05 12:11 21.38514 110.99458 11220 ft 308 kts 252°
2026-05-05 12:11 21.35897 110.91219 9646 ft 307 kts 252°
2026-05-05 12:11 21.34727 110.87550 8808 ft 309 kts 252°
2026-05-05 12:12 21.34029 110.85362 8301 ft 310 kts 252°
2026-05-05 12:12 21.33564 110.83111 7829 ft 310 kts 268°
2026-05-05 12:12 21.33622 110.80799 7355 ft 310 kts 272°
2026-05-05 12:12 21.33724 110.78487 6872 ft 311 kts 272°
2026-05-05 12:13 21.33834 110.76101 5541 ft 335 kts 272°
2026-05-05 12:13 21.33955 110.73503 4200 ft 359 kts 272°
2026-05-05 12:13 21.34206 110.70837 3516 ft 356 kts 284°
2026-05-05 12:13 21.35153 110.68451 2809 ft 340 kts 304°
2026-05-05 12:14 21.36642 110.66750 2424 ft 277 kts 322°
2026-05-05 12:14 21.38084 110.65769 2064 ft 217 kts 332°
2026-05-05 12:14 21.39268 110.65031 1809 ft 180 kts 332°
2026-05-05 12:14 21.40288 110.64397 1594 ft 162 kts 333°
2026-05-05 12:15 21.41242 110.63805 1390 ft 155 kts 333°
2026-05-05 12:15 21.42166 110.63232 1186 ft 152 kts 333°
2026-05-05 12:15 21.43076 110.62667 996 ft 150 kts 332°
2026-05-05 12:15 21.43977 110.62108 808 ft 149 kts 332°
2026-05-05 12:16 21.44869 110.61554 620 ft 147 kts 332°
2026-05-05 12:16 21.45740 110.61013 418 ft 146 kts 332°
2026-05-05 12:16 21.46602 110.60477 240 ft 146 kts 332°
2026-05-05 12:17 21.46945 110.60272 160 ft 145 kts 333°
2026-05-05 12:17 21.47793 110.59743 100 ft 129 kts 332°
2026-05-05 12:17 21.48465 110.59342 48 ft 77 kts 330°
2026-05-05 12:18 21.48570 110.59275 42 ft 53 kts 328°